Lapse_Rate
5.9 5.7 5.6 5.6 5.4 5.2 5.1 5.3 5.5 5.6 5.9 5.9 6.0 6.1 5.9 5.8 5.8 5.6 5.6 5.7 5.7 5.6 5.6 5.6 5.6 5.5 5.6 5.6 5.6 5.6 5.6 5.7 5.8 5.8 5.8 5.8 5.7 5.8 5.9 5.8 5.9 5.9 6.0
6.1 6.1 6.0 6.0 5.7 5.7 5.5 5.7 5.7 5.8 5.9 5.9 5.9 5.9 5.9 5.9 5.9 5.8 5.9 5.7 5.6 5.6 5.4 5.5 5.5 5.4 5.6 5.7 5.8 5.7 5.8 5.8 5.9 5.8 5.7 5.8 5.9 5.9 5.7 5.8 5.9 5.9 5.7
6.2 6.2 6.3 6.1 6.0 6.0 6.0 5.9 6.0 5.9 6.0 5.9 5.8 5.8 5.7 5.8 5.9 5.9 5.8 5.7 5.6 5.5 5.5 5.5 5.4 5.5 5.6 5.7 5.9 5.9 5.8 5.8 5.8 5.7 5.9 5.8 5.8 5.8 5.8 5.8 5.7 5.7 5.6
6.2 6.2 6.3 6.4 6.3 6.1 6.2 6.2 6.1 6.1 6.0 6.0 5.9 5.8 5.9 6.0 6.0 6.1 5.9 5.8 5.7 5.7 5.7 5.5 5.6 5.7 5.6 5.6 5.7 5.7 5.8 5.7 5.8 5.9 5.4 5.8 5.8 5.9 5.9 5.8 5.7 5.8 5.9
6.3 6.3 6.2 6.3 6.3 6.2 6.2 6.3 6.3 6.2 6.1 6.1 6.1 6.0 6.1 6.2 6.2 6.1 6.1 6.1 6.0 5.9 5.8 5.7 5.9 5.9 5.7 5.7 5.7 5.8 6.0 5.9 5.9 5.7 5.8 5.8 5.7 5.8 5.7 5.7 5.8 5.9 6.0
6.4 6.3 6.3 6.3 6.2 6.2 6.3 6.2 6.2 6.1 6.0 6.0 6.1 6.1 6.1 6.0 6.0 6.0 6.1 6.1 6.2 5.9 6.0 5.9 5.7 6.0 6.0 6.0 6.0 6.0 5.9 5.9 5.8 5.7 5.9 5.7 5.7 5.7 5.9 5.9 6.0 6.1 6.2
5.8 6.2 6.2 6.2 6.3 6.3 6.3 6.3 6.2 6.2 6.1 6.2 6.1 6.1 6.1 6.1 6.1 6.1 6.2 6.1 6.2 6.2 6.3 6.1 5.9 6.3 6.1 6.1 6.1 5.9 5.9 5.9 5.9 5.9 5.8 5.8 5.8 5.9 5.9 6.1 6.2 6.3 6.4
5.9 6.0 6.2 6.3 6.4 6.3 6.2 6.2 6.2 6.2 6.3 6.2 6.2 6.1 6.1 6.1 6.1 6.1 6.1 6.1 6.2 6.3 6.3 6.3 6.7 6.3 6.3 6.1 6.0 6.0 5.9 6.1 6.1 6.0 5.9 5.8 6.0 6.0 6.1 6.2 6.3 6.4 6.4
6.2 6.3 6.3 6.4 6.4 6.3 6.2 6.1 6.1 6.2 6.0 6.1 6.2 6.1 6.0 6.0 6.0 5.9 5.9 6.3 6.2 6.3 6.6 6.5 6.4 6.4 6.3 6.1 6.0 6.0 6.0 6.2 6.1 6.0 5.9 5.9 6.1 6.2 6.2 6.2 6.3 6.4 6.5
6.3 6.3 6.4 6.4 6.3 6.3 6.3 6.2 5.9 6.1 6.1 6.1 6.2 6.1 6.0 6.1 6.1 6.0 6.1 6.3 6.4 6.4 6.4 6.5 6.4 6.3 6.2 6.2 6.1 6.0 6.2 6.1 6.0 6.0 5.9 6.2 6.3 6.2 6.2 6.4 6.5 6.5 6.7
6.2 6.3 6.2 6.1 6.3 6.3 6.3 6.0 5.8 5.9 6.1 6.1 6.1 5.9 5.9 6.1 6.2 6.2 6.3 6.4 6.3 6.2 6.2 6.2 6.2 6.2 6.1 6.1 6.0 6.1 6.1 6.1 6.1 6.1 6.3 6.3 6.3 6.3 6.4 6.6 6.6 6.8 6.9
6.0 6.1 6.0 6.1 6.0 6.2 6.3 6.0 5.9 5.8 5.9 5.9 5.8 6.0 6.1 6.2 6.3 6.3 6.2 6.2 6.2 6.1 6.1 6.1 6.1 6.1 6.3 6.1 6.0 6.1 6.2 6.2 6.3 6.3 6.3 6.3 6.4 6.5 6.7 6.8 7.0 7.0 7.1
5.8 6.0 6.1 5.9 6.1 5.9 5.7 5.7 5.9 5.8 5.7 5.7 5.8 6.0 6.1 6.1 6.1 6.2 6.2 6.2 6.2 6.1 6.0 6.1 6.0 6.1 6.3 6.2 6.2 6.2 6.2 6.4 6.3 6.4 6.3 6.4 6.6 6.7 6.9 7.0 7.1 7.0 7.1
5.9 5.9 6.0 5.9 6.0 5.6 5.3 5.4 5.7 5.7 5.8 5.9 5.8 5.9 6.1 6.1 6.2 6.2 6.3 6.2 6.0 6.0 6.0 6.0 5.9 6.3 6.3 6.3 6.3 6.3 6.3 6.4 6.4 6.3 6.4 6.4 6.8 7.0 6.8 6.9 6.9 7.0 7.0
5.9 5.9 5.9 5.9 5.7 5.6 5.4 5.6 5.5 5.5 5.6 5.7 5.8 5.9 6.1 6.2 6.2 6.2 6.1 6.0 5.9 5.8 5.8 5.8 6.0 6.2 6.2 6.2 6.2 6.3 6.4 6.5 6.4 6.5 6.6 6.8 6.9 6.8 6.7 6.8 6.7 6.8 6.7
5.8 5.9 5.9 5.7 5.5 5.4 5.4 5.4 5.4 5.3 5.6 5.8 5.8 5.9 6.1 6.2 6.1 6.0 5.9 5.8 5.7 5.7 5.8 5.9 6.1 6.1 6.1 6.2 6.3 6.3 6.5 6.5 6.7 6.8 6.9 6.9 6.9 6.7 6.7 6.7 6.6 6.6 6.6
5.6 5.8 5.7 5.4 5.3 5.2 5.2 5.2 5.5 5.5 5.7 5.8 5.8 6.0 6.1 6.0 5.9 5.8 5.7 5.7 5.6 5.8 5.8 6.0 6.0 6.0 6.0 6.2 6.3 6.2 6.4 6.6 6.8 7.0 7.0 7.0 6.9 6.8 6.7 6.7 6.6 6.6 6.4
5.5 5.6 5.5 5.3 5.2 5.1 5.2 5.3 5.5 5.7 5.8 5.9 5.9 5.9 5.9 5.8 5.7 5.7 5.7 5.6 5.6 5.8 5.8 6.0 6.0 6.0 6.1 6.3 6.3 6.3 6.5 6.9 6.9 7.0 7.0 7.0 6.9 6.8 6.7 6.9 6.7 6.5 6.5
5.4 5.4 5.4 5.4 5.1 5.0 5.2 5.3 5.7 5.7 5.8 6.0 6.1 6.2 6.1 5.8 5.9 5.8 5.5 5.5 5.5 5.6 5.8 5.9 6.1 6.0 6.2 6.5 6.5 6.7 6.8 7.0 6.9 7.0 7.0 7.0 6.7 6.6 6.6 6.6 6.5 6.5 6.6
5.5 5.5 5.6 5.6 5.4 5.6 5.4 5.5 5.6 5.6 5.7 5.9 6.0 6.1 6.0 5.8 5.7 5.5 5.3 5.3 5.2 5.2 5.6 5.9 5.9 6.1 6.4 6.5 5.9 6.8 6.9 7.1 7.1 7.1 7.1 7.0 6.7 6.6 6.5 6.6 6.6 6.5 6.4
5.5 5.6 5.6 5.7 5.6 5.5 5.5 5.5 5.4 5.4 5.6 5.8 5.9 6.0 5.9 5.7 5.7 5.4 5.1 5.1 5.1 5.4 5.7 5.8 5.9 6.1 6.3 6.5 6.6 6.8 6.9 7.0 7.1 7.1 7.1 7.1 7.0 6.8 6.6 6.6 6.5 6.5 6.4
5.4 5.5 5.5 5.5 5.6 5.4 5.4 5.4 5.5 5.5 5.6 5.7 5.8 5.7 5.7 5.6 5.5 5.3 5.2 5.1 5.1 5.1 5.3 5.6 5.9 6.1 6.2 6.2 5.7 6.2 6.4 7.0 7.1 7.2 7.2 7.1 6.9 6.8 6.6 6.5 6.4 6.5 6.4
5.4 5.5 5.7 5.4 5.4 5.5 5.5 5.5 5.4 5.5 5.6 5.7 5.8 5.8 5.7 5.5 5.6 5.4 5.2 5.1 5.1 5.1 5.1 5.5 6.0 6.1 5.6 6.2 6.5 6.2 6.1 6.4 6.4 7.1 7.1 7.0 6.9 6.8 6.6 6.5 6.4 6.2 6.3
5.0 5.4 5.6 5.5 5.3 5.4 5.3 5.3 5.4 5.4 5.4 5.4 5.5 5.8 5.9 5.7 5.5 5.4 5.2 5.2 5.3 5.3 5.3 5.2 5.5 5.7 5.8 5.8 6.3 6.6 6.7 6.5 6.3 6.6 6.7 6.7 6.6 6.8 6.8 6.4 6.1 5.9 6.0
5.0 5.1 5.5 5.7 5.5 5.5 5.5 5.4 5.3 5.4 5.4 5.5 5.7 5.7 5.5 5.5 5.5 5.4 5.3 5.3 5.4 5.4 5.5 5.4 5.5 5.7 5.7 5.8 6.0 6.2 6.4 6.6 6.7 6.6 6.2 5.9 6.4 6.8 6.7 6.5 6.3 6.1 6.0
5.2 5.1 5.4 5.7 5.9 5.5 5.4 5.3 5.3 5.6 5.6 5.6 5.7 5.7 5.5 5.4 5.3 5.3 5.4 5.6 5.6 5.6 5.7 5.6 5.6 5.7 5.9 6.1 6.2 6.3 6.4 6.5 6.1 6.6 6.2 6.0 6.3 6.4 6.6 6.4 6.1 5.8 5.7
Wind_Speed
8 12 6 9 10 11 12 12 15 16 16 15 16 16 14 15 15 15 14 14 15 14 14 13 14 13 14 16 15 15 16 17 17 17 17 17 15 15 12 8 12 17 15
13 12 10 12 12 12 13 14 15 16 15 16 16 16 16 15 15 15 14 14 14 13 14 15 14 12 13 13 14 14 13 15 16 16 18 18 16 15 13 15 18 16 14
13 15 14 11 13 13 14 15 16 16 16 15 16 16 15 15 15 14 13 13 13 14 16 17 16 13 13 13 14 15 16 15 13 10 11 17 16 14 15 14 15 14 13
12 13 15 11 13 13 13 15 16 16 15 15 16 15 15 15 14 14 13 13 13 16 15 15 13 15 17 17 16 16 15 12 6 6 11 17 17 14 14 15 14 12 14
11 12 14 10 12 14 13 14 15 13 14 15 15 14 14 15 15 15 14 14 15 14 15 15 15 15 16 16 16 15 14 11 5 11 12 14 16 14 12 11 13 13 15
11 17 13 10 10 13 14 15 14 14 14 15 15 14 14 15 15 15 15 15 15 15 15 15 15 14 15 16 15 14 12 5 6 14 15 12 15 13 13 13 13 12 11
11 16 16 11 11 15 15 14 13 12 14 15 14 13 14 14 15 15 15 15 14 14 14 13 15 15 14 14 13 12 10 4 11 12 12 15 15 14 11 11 10 9 8
9 13 13 11 11 12 15 13 13 12 12 13 13 13 14 14 14 14 14 13 13 13 14 15 14 14 13 13 12 11 8 1 8 12 11 13 12 11 9 8 7 7 6
9 9 12 13 12 10 11 12 11 12 15 11 12 13 15 14 14 13 12 12 12 12 13 13 12 10 11 11 10 9 7 3 9 8 8 12 8 9 8 6 6 6 6
9 9 12 10 12 12 13 12 13 12 15 14 14 13 16 15 13 12 12 10 10 10 10 10 10 10 9 9 8 7 6 8 10 9 10 11 7 6 5 5 5 5 5
8 8 6 11 11 9 13 15 16 13 12 14 14 10 10 12 11 11 12 8 8 7 8 8 7 7 8 8 7 5 10 7 8 7 12 7 4 4 5 5 5 4 4
10 11 7 9 8 12 11 12 16 13 10 9 9 9 10 8 11 13 10 7 7 6 6 6 5 5 11 8 10 12 5 7 8 7 11 4 2 4 4 4 5 6 7
11 8 9 9 8 12 8 13 12 12 9 9 9 8 9 10 10 10 9 9 9 6 6 7 7 3 5 3 4 7 8 6 8 8 9 3 2 4 4 5 6 7 8
10 10 11 11 7 7 10 9 9 10 9 10 11 8 9 9 6 5 6 6 5 3 3 1 5 3 1 2 4 6 7 7 8 8 9 4 2 4 4 6 7 8 10
11 10 10 11 8 7 7 7 8 8 8 11 10 8 6 7 5 5 5 5 3 3 4 3 3 5 4 6 6 5 7 7 7 7 10 6 2 2 4 6 8 9 10
10 10 11 10 9 10 6 7 7 7 9 8 9 9 5 5 3 6 4 5 5 3 3 2 3 2 4 10 7 8 7 8 6 4 7 9 4 2 4 6 9 10 11
10 11 12 11 12 10 9 9 8 9 10 8 8 7 4 2 5 3 4 4 4 3 2 3 3 3 5 9 7 7 9 6 9 6 5 4 5 5 4 7 10 11 12
11 11 12 11 12 10 9 9 8 8 8 8 8 7 4 5 4 4 5 5 4 1 1 1 3 4 4 6 5 5 6 7 6 5 4 1 1 3 7 7 9 12 13
11 12 12 11 11 11 10 9 8 8 6 8 7 6 5 5 4 2 4 5 1 2 3 1 4 3 5 5 6 5 4 4 4 6 3 0 1 5 6 2 7 12 11
12 12 10 9 11 9 8 7 7 7 7 7 6 6 6 5 4 4 5 3 1 2 4 3 2 3 2 2 3 5 3 3 2 2 1 3 1 4 5 7 10 7 4
13 12 13 11 11 9 8 8 7 8 7 6 6 6 5 3 2 4 3 3 2 2 4 3 4 4 4 2 4 4 4 4 5 3 3 3 2 5 5 5 7 9 4
14 13 12 11 11 9 8 7 7 7 8 7 7 7 6 6 4 3 1 2 1 2 2 2 2 2 2 2 2 1 4 5 5 3 2 3 2 3 2 2 6 8 5
14 14 13 11 12 11 10 7 6 4 4 5 5 6 9 7 5 3 2 3 2 5 3 1 1 3 2 3 2 4 2 4 2 4 4 2 1 3 4 3 3 5 5
15 14 13 12 12 12 11 10 10 9 8 7 7 5 6 8 5 4 2 3 3 4 1 1 1 5 5 1 3 1 3 4 4 2 5 2 3 3 5 5 3 2 3
15 15 14 12 12 13 13 10 8 9 7 7 6 7 5 7 7 7 5 3 4 6 2 2 2 3 3 5 3 1 1 2 1 5 5 1 2 2 3 2 3 4 4
15 14 14 14 12 12 11 11 12 11 7 7 8 7 7 8 7 9 7 5 5 4 4 3 0 1 3 3 3 3 4 4 2 4 4 2 3 0 1 1 2 4 7
Wind_Direction
138 120 125 120 119 108 106 103 99 98 99 97 97 98 100 99 96 94 96 95 95 91 87 88 87 94 93 95 91 97 101 100 102 102 102 99 94 89 90 96 144 93 84
132 121 122 120 112 102 103 96 102 101 103 103 103 102 94 99 98 95 90 94 92 94 90 85 90 98 97 95 101 99 96 97 98 104 108 99 91 91 85 65 61 85 85
130 124 119 106 108 101 97 100 100 103 104 101 104 93 94 92 91 92 95 100 101 92 88 86 86 87 95 96 98 102 100 101 108 129 147 93 91 93 91 89 89 93 91
126 126 115 112 108 104 102 106 105 104 105 98 93 96 92 93 93 92 94 91 94 90 88 87 88 89 92 92 95 96 97 98 108 199 100 95 91 82 88 89 90 97 100
118 110 102 108 104 105 108 110 107 98 108 102 98 98 95 91 91 93 95 92 89 84 89 88 96 97 96 97 97 99 98 101 123 109 98 81 92 92 91 90 109 80 62
132 104 115 112 107 112 108 107 103 102 103 101 101 100 100 100 93 94 95 94 89 88 90 93 96 98 99 98 97 98 99 108 162 107 105 76 80 93 81 80 83 82 79
128 122 117 110 103 116 114 108 107 104 106 104 103 97 104 98 101 97 95 100 91 92 89 88 106 99 97 100 99 97 89 42 101 100 90 73 93 90 83 83 89 84 79
120 115 125 111 106 110 120 110 111 108 104 103 102 100 99 94 95 95 94 95 92 86 82 91 103 97 93 98 99 98 95 47 89 86 88 89 82 83 87 84 80 73 66
127 114 129 128 119 110 118 123 116 120 107 106 105 101 106 101 94 96 102 101 95 92 88 92 99 100 98 92 96 100 92 8 99 90 114 95 95 85 80 84 81 64 52
137 119 127 156 126 142 123 114 102 104 120 111 109 105 107 104 105 111 120 101 98 95 92 93 92 89 110 99 102 116 153 199 97 119 87 84 77 82 88 68 52 43 31
140 128 138 131 128 125 125 119 112 117 104 108 106 110 170 108 121 117 75 102 107 107 102 101 103 100 129 135 126 175 222 83 108 92 92 96 105 91 62 45 25 9 358
147 137 178 112 144 139 125 128 112 114 109 105 117 119 110 103 63 92 98 107 105 111 120 122 128 188 224 134 144 208 129 105 98 105 96 138 98 59 43 20 355 347 344
146 145 140 143 161 121 138 131 128 121 129 122 117 118 112 131 139 119 131 150 141 189 159 176 181 222 46 40 91 85 104 133 122 100 111 135 51 28 19 357 346 341 338
145 157 144 140 132 136 149 132 135 130 135 139 116 132 137 134 128 114 105 113 150 123 117 258 94 46 78 129 99 89 118 117 108 113 117 117 38 6 348 340 334 329 323
160 157 148 145 146 134 148 145 126 124 143 126 149 128 134 124 115 125 119 118 87 134 100 109 73 49 106 110 119 115 110 92 108 110 110 126 96 307 327 326 321 313 315
160 160 144 155 157 143 151 145 138 156 133 153 141 133 147 130 124 127 134 127 116 96 95 75 45 51 88 105 111 107 111 112 88 109 99 122 153 239 276 283 289 292 297
167 156 152 160 162 159 160 155 165 160 158 150 138 152 138 179 126 126 120 143 102 115 175 169 180 146 121 110 105 122 114 113 110 110 110 89 144 180 233 258 265 283 304
153 158 163 168 163 165 152 162 161 158 162 159 154 157 145 133 133 173 157 110 99 109 160 150 177 131 125 127 128 135 122 124 120 123 109 110 59 304 208 230 275 286 298
156 162 167 161 161 159 151 167 169 152 179 160 161 164 144 151 141 171 140 106 148 101 76 169 149 153 139 142 155 149 135 123 169 129 118 179 200 293 332 230 287 296 295
163 167 170 158 154 165 156 166 171 166 169 166 174 162 165 158 166 204 122 110 277 137 93 76 130 138 158 164 150 131 127 131 148 128 149 226 213 266 296 322 326 332 332
171 176 172 169 161 159 163 165 166 172 164 176 179 155 157 155 150 166 140 175 213 90 49 137 164 174 154 153 204 160 153 188 192 205 233 249 290 300 335 350 340 353 14
179 183 177 183 175 180 165 170 177 171 175 174 179 172 181 187 187 173 268 203 309 133 96 119 242 173 166 161 274 237 182 174 207 211 226 271 315 310 355 11 17 27 21
179 185 180 189 181 192 174 168 168 135 122 175 173 195 183 195 205 199 212 279 237 281 133 87 167 284 143 150 287 311 191 234 157 170 195 232 288 316 339 338 22 47 20
180 185 178 186 187 190 192 181 179 179 180 184 184 189 168 185 181 189 223 224 239 300 330 138 354 328 302 169 166 152 338 354 303 213 173 190 267 286 37 340 24 74 359
180 182 181 184 184 189 193 201 180 219 174 187 168 169 217 171 194 197 189 199 214 244 178 290 323 338 299 312 291 232 243 231 227 301 311 130 219 315 10 1 35 20 21
184 187 181 181 188 197 196 203 206 203 207 189 189 189 191 188 193 200 201 203 204 227 224 230 267 42 0 11 334 306 291 303 306 290 291 287 331 348 23 119 28 11 17